OBJECT K, 59809

Orbit data source: Space-Track

You're viewing an Uncataloged Satellite

Recently launched and/or uncataloged satellites may have evolving metadata. Metadata may include but not limited to: Owner, Maufacturer, Bus, Motor, and Mission.

OBJECT K, 59809 is a satellite owned by Sitronics (CIS) in SSO that was launched on Thu, 16 May 2024 UTC via a SOYUZ-2-1B launch vehicle from the Plesetsk Missile And Space Complex (PKMTR). Unknown objects in Earth's orbit typically refer to objects detected orbiting the Earth but have not yet been identified or cataloged. These objects could be anything from previously untracked satellites, spent rocket stages, debris from satellite collisions, or even natural meteoroids temporarily captured by Earth's gravity.

Loading next visibility...
Identifier
59809, 2024-092K
Orbit
SSO
Last TLE update
9 hours ago
Origin
Manufacturer
Sputniks
Mission
Operational spacecraft
Bus & Motor
CUBESAT 3U?, Unknown motor
Mass
3 kg wet, 3 kg dry
Launch date (UTC)
2024-05-16 (1 year ago)
Launch vehicle
SOYUZ-2-1B
Launch site
Plesetsk Missile And Space Complex (PKMTR)
Object type
Unknown
Shape & HBR
Unknown
Radar Cross Section
Small (<0.1 m²)

Expand to show TLE details & history

TLE from 9 hours ago
0 OBJECT K
1 59809U 24092K   25199.61337761  .00009863  00000-0  42163-3 0  9993
2 59809  97.6241 318.2859 0008995 241.5589 118.4741 15.23023217 64241
Epoch: 2025-07-18T14:43Z
TLE epoch observation values (Epoch: 2025-07-18T14:43:15.825Z)
Latitude
-0.00005°
Longitude
160.80765°
Altitude
502.769 km
Speed
7.611 km/s
True Right ascension
21h 13m 08s
True Declination
0° 00' 00"
Sunlit
Object was in full shadow at epoch
Visualization orbit readout
Latitude
-18.97696°
Longitude
-21.44577°
Altitude
499.48 km
Speed
7.616 km/s
Apparent Right ascension
05h 50m 23s
Apparent Declination
-52° 17' 09"
Sunlit
Object is in daylight
Visualization observer readout
Local Sidereal Time
12:16:12
Azimuth
227.213° WSW
Elevation
-34.079°
Doppler factor
1
Orbital elements
Apogee altitude
499.88 km
Perigee altitude
487.518 km
Semi-major axis
6,871.836 km
Eccentricity
0.0009
Inclination
97.6241°
RAAN
318.2859°
Arg. of periapsis
241.5589°
True anomaly
118.56466°
Mean anomaly
118.4741°
Eccentric anomaly
118.51938°
Mean motion
3.81008 °/min
Orbital period
94.49 mins
BSTAR
0.00042163
Loading maneuver chart data...
Loading SW <> Apogee altitude chart data...
Loading historical data...
Loading historical data...
Loading historical data...
Loading historical data...
Loading historical data...
Loading historical data...
Loading historical data...
|